Location: Delia
(51.6321°N, 112.3740°W)
Time: 13:42:59
(UTC+00:00)

X-37B - Visible Passes

Search period start: 02 December 2021 00:00
Search period end: 12 December 2021 00:00
Orbit: 330 x 341 km, 45.0° (Epoch: 20 November)

Date Brightness Start Highest point End Pass type
(mag) Time Alt. Az. Time Alt. Az. Time Alt. Az.
09 Dec 3.0 01:12:45 10° S 01:13:41 11° SSE 01:13:51 11° SSE visible
10 Dec 2.7 01:31:50 10° SSW 01:33:25 16° S 01:33:25 16° S visible
11 Dec 3.1 00:18:11 10° S 00:19:07 11° SSE 00:20:03 10° SE visible
11 Dec 2.9 01:51:42 10° SW 01:52:57 18° SSW 01:52:57 18° SSW visible
